QPF
0.00 0.00 0.00 0.00 0.00 0.00 0.00 0.00 0.00 0.00 0.00 0.00 0.00 0.00 0.00 0.00 0.00 0.00 0.00 0.00 0.00 0.00 0.00 0.00 0.00 0.00 0.00 0.00 0.00 0.00 0.00 0.00 0.00 0.00 0.00 0.00 0.00 0.00 0.00 0.00 0.00 0.00 0.00 0.00 0.00 0.00 0.00 0.00 0.00 0.00 0.00 0.00 0.00 0.00
0.00 0.00 0.00 0.00 0.00 0.00 0.00 0.00 0.00 0.00 0.00 0.00 0.00 0.00 0.00 0.00 0.00 0.00 0.00 0.00 0.00 0.00 0.00 0.00 0.00 0.00 0.00 0.00 0.00 0.00 0.00 0.00 0.00 0.00 0.00 0.00 0.00 0.00 0.00 0.00 0.00 0.00 0.00 0.00 0.00 0.00 0.00 0.00 0.00 0.00 0.00 0.00 0.00 0.00
0.00 0.00 0.00 0.00 0.00 0.00 0.00 0.00 0.00 0.00 0.00 0.00 0.00 0.00 0.00 0.00 0.00 0.00 0.00 0.00 0.00 0.00 0.00 0.00 0.00 0.00 0.00 0.00 0.00 0.00 0.00 0.00 0.00 0.00 0.00 0.00 0.00 0.00 0.00 0.00 0.00 0.00 0.00 0.00 0.00 0.00 0.00 0.00 0.00 0.00 0.00 0.00 0.00 0.00
0.00 0.00 0.00 0.00 0.00 0.00 0.00 0.00 0.00 0.00 0.00 0.00 0.00 0.00 0.00 0.00 0.00 0.00 0.00 0.00 0.00 0.00 0.00 0.00 0.00 0.00 0.00 0.00 0.00 0.00 0.00 0.00 0.00 0.00 0.00 0.00 0.00 0.00 0.00 0.00 0.00 0.00 0.00 0.00 0.00 0.00 0.00 0.00 0.00 0.00 0.00 0.00 0.00 0.00
0.00 0.00 0.00 0.00 0.00 0.00 0.00 0.00 0.00 0.00 0.00 0.00 0.00 0.00 0.00 0.00 0.00 0.00 0.00 0.00 0.00 0.00 0.00 0.00 0.00 0.00 0.00 0.00 0.00 0.01 0.01 0.00 0.01 0.00 0.00 0.00 0.00 0.00 0.00 0.00 0.00 0.00 0.00 0.00 0.00 0.00 0.00 0.00 0.00 0.00 0.00 0.00 0.00 0.00
0.00 0.00 0.00 0.00 0.00 0.00 0.00 0.00 0.00 0.00 0.00 0.00 0.00 0.00 0.00 0.00 0.00 0.00 0.00 0.00 0.00 0.00 0.00 0.00 0.00 0.00 0.00 0.00 0.00 0.00 0.03 0.03 0.01 0.00 0.00 0.00 0.00 0.00 0.00 0.00 0.00 0.00 0.00 0.00 0.00 0.00 0.00 0.00 0.00 0.00 0.00 0.00 0.00 0.00
0.00 0.00 0.00 0.00 0.00 0.00 0.00 0.00 0.00 0.00 0.00 0.00 0.00 0.00 0.00 0.00 0.00 0.00 0.00 0.00 0.00 0.00 0.00 0.00 0.00 0.00 0.00 0.00 0.00 0.00 0.00 0.00 0.00 0.00 0.00 0.00 0.00 0.00 0.00 0.00 0.00 0.00 0.00 0.00 0.00 0.00 0.00 0.00 0.00 0.00 0.00 0.00 0.00 0.00
0.00 0.00 0.00 0.00 0.00 0.00 0.00 0.00 0.00 0.00 0.00 0.00 0.00 0.00 0.00 0.00 0.00 0.00 0.00 0.00 0.00 0.00 0.00 0.00 0.00 0.00 0.00 0.00 0.00 0.00 0.00 0.00 0.00 0.00 0.00 0.00 0.00 0.00 0.00 0.00 0.00 0.00 0.00 0.00 0.00 0.00 0.00 0.00 0.00 0.00 0.00 0.00 0.00 0.00
0.00 0.00 0.00 0.00 0.00 0.00 0.00 0.00 0.00 0.00 0.00 0.00 0.00 0.00 0.00 0.00 0.00 0.00 0.00 0.00 0.00 0.00 0.00 0.00 0.00 0.00 0.00 0.00 0.00 0.00 0.00 0.00 0.00 0.00 0.00 0.00 0.00 0.00 0.00 0.00 0.00 0.00 0.00 0.00 0.00 0.00 0.00 0.00 0.00 0.00 0.00 0.00 0.00 0.00
0.00 0.00 0.00 0.00 0.00 0.00 0.00 0.00 0.00 0.00 0.00 0.00 0.00 0.00 0.00 0.00 0.00 0.00 0.00 0.00 0.00 0.00 0.00 0.00 0.00 0.00 0.00 0.00 0.00 0.00 0.00 0.00 0.00 0.00 0.00 0.00 0.00 0.00 0.00 0.00 0.00 0.00 0.00 0.00 0.00 0.00 0.00 0.00 0.00 0.00 0.00 0.00 0.00 0.00
0.00 0.00 0.00 0.00 0.00 0.00 0.00 0.00 0.00 0.00 0.00 0.00 0.00 0.00 0.00 0.00 0.00 0.00 0.00 0.00 0.00 0.00 0.00 0.00 0.00 0.00 0.00 0.00 0.00 0.00 0.00 0.00 0.00 0.00 0.00 0.00 0.00 0.00 0.00 0.00 0.00 0.00 0.00 0.00 0.00 0.00 0.00 0.00 0.00 0.00 0.00 0.00 0.00 0.00
0.00 0.00 0.00 0.00 0.00 0.00 0.00 0.00 0.00 0.00 0.00 0.00 0.00 0.00 0.00 0.00 0.00 0.00 0.00 0.00 0.00 0.00 0.00 0.00 0.00 0.00 0.00 0.00 0.00 0.00 0.00 0.00 0.00 0.00 0.00 0.00 0.00 0.00 0.00 0.00 0.00 0.00 0.00 0.00 0.00 0.00 0.00 0.00 0.00 0.00 0.00 0.00 0.00 0.00
0.00 0.00 0.00 0.00 0.00 0.00 0.00 0.00 0.00 0.00 0.00 0.00 0.00 0.00 0.00 0.00 0.00 0.00 0.00 0.00 0.00 0.00 0.00 0.00 0.00 0.00 0.00 0.00 0.00 0.00 0.00 0.00 0.00 0.00 0.00 0.00 0.00 0.00 0.00 0.00 0.00 0.00 0.00 0.00 0.00 0.00 0.00 0.00 0.00 0.00 0.00 0.00 0.00 0.00
0.00 0.00 0.00 0.00 0.00 0.00 0.00 0.00 0.00 0.00 0.00 0.00 0.00 0.00 0.00 0.00 0.00 0.00 0.00 0.00 0.00 0.00 0.00 0.00 0.00 0.00 0.00 0.00 0.00 0.00 0.00 0.00 0.00 0.00 0.00 0.00 0.00 0.00 0.00 0.00 0.00 0.00 0.00 0.00 0.00 0.00 0.00 0.00 0.00 0.00 0.00 0.00 0.00 0.00
0.00 0.00 0.00 0.00 0.00 0.00 0.00 0.00 0.00 0.00 0.00 0.00 0.00 0.00 0.00 0.00 0.00 0.00 0.00 0.00 0.00 0.00 0.00 0.00 0.00 0.00 0.00 0.00 0.00 0.00 0.00 0.00 0.00 0.00 0.00 0.00 0.00 0.00 0.00 0.00 0.00 0.00 0.00 0.00 0.00 0.00 0.00 0.00 0.00 0.00 0.00 0.00 0.00 0.00
0.00 0.00 0.00 0.00 0.00 0.00 0.00 0.00 0.00 0.00 0.00 0.00 0.00 0.00 0.00 0.00 0.00 0.00 0.00 0.00 0.00 0.00 0.00 0.00 0.00 0.00 0.00 0.00 0.00 0.00 0.00 0.00 0.00 0.00 0.00 0.00 0.00 0.00 0.00 0.00 0.00 0.00 0.00 0.00 0.00 0.00 0.00 0.00 0.00 0.00 0.00 0.00 0.00 0.00
0.00 0.00 0.00 0.00 0.00 0.01 0.00 0.00 0.00 0.00 0.00 0.00 0.00 0.00 0.00 0.00 0.00 0.00 0.00 0.00 0.00 0.00 0.00 0.00 0.00 0.00 0.00 0.00 0.00 0.00 0.00 0.00 0.00 0.00 0.00 0.00 0.00 0.00 0.00 0.00 0.00 0.00 0.00 0.00 0.00 0.00 0.00 0.00 0.00 0.00 0.00 0.00 0.00 0.00
0.00 0.00 0.00 0.00 0.00 0.00 0.00 0.00 0.00 0.00 0.00 0.00 0.00 0.00 0.00 0.00 0.00 0.00 0.00 0.00 0.00 0.00 0.00 0.00 0.00 0.00 0.00 0.00 0.00 0.00 0.00 0.00 0.00 0.00 0.00 0.00 0.00 0.00 0.00 0.00 0.00 0.00 0.00 0.00 0.00 0.00 0.00 0.00 0.00 0.00 0.00 0.00 0.00 0.00
0.00 0.00 0.01 0.00 0.00 0.00 0.00 0.00 0.00 0.00 0.00 0.00 0.00 0.00 0.00 0.00 0.00 0.00 0.00 0.00 0.00 0.00 0.01 0.01 0.00 0.00 0.00 0.00 0.00 0.00 0.00 0.00 0.00 0.00 0.00 0.00 0.00 0.00 0.00 0.00 0.00 0.00 0.00 0.00 0.00 0.00 0.00 0.00 0.00 0.00 0.00 0.00 0.00 0.00
0.00 0.01 0.00 0.00 0.00 0.00 0.00 0.00 0.00 0.00 0.00 0.00 0.00 0.00 0.00 0.00 0.00 0.00 0.00 0.00 0.00 0.01 0.02 0.01 0.00 0.00 0.00 0.00 0.00 0.00 0.00 0.00 0.00 0.00 0.00 0.00 0.00 0.00 0.00 0.00 0.00 0.00 0.00 0.00 0.00 0.00 0.00 0.00 0.00 0.00 0.00 0.00 0.00 0.00
0.00 0.01 0.01 0.00 0.00 0.00 0.00 0.00 0.00 0.00 0.00 0.00 0.00 0.00 0.00 0.00 0.00 0.00 0.00 0.00 0.00 0.00 0.00 0.00 0.00 0.00 0.00 0.00 0.00 0.00 0.00 0.00 0.00 0.00 0.00 0.00 0.00 0.00 0.00 0.00 0.00 0.00 0.00 0.00 0.00 0.00 0.00 0.00 0.00 0.00 0.00 0.00 0.00 0.00
0.00 0.00 0.00 0.00 0.00 0.00 0.00 0.00 0.00 0.00 0.00 0.00 0.00 0.00 0.00 0.00 0.00 0.00 0.00 0.00 0.00 0.00 0.00 0.00 0.00 0.00 0.00 0.00 0.00 0.00 0.00 0.00 0.00 0.00 0.00 0.00 0.00 0.00 0.00 0.00 0.00 0.00 0.00 0.00 0.00 0.00 0.00 0.00 0.00 0.00 0.00 0.00 0.00 0.00
0.00 0.00 0.00 0.00 0.00 0.00 0.00 0.00 0.00 0.00 0.00 0.00 0.00 0.00 0.00 0.00 0.00 0.00 0.00 0.00 0.00 0.00 0.00 0.00 0.00 0.00 0.00 0.00 0.00 0.00 0.00 0.00 0.00 0.00 0.00 0.00 0.00 0.00 0.00 0.00 0.00 0.00 0.00 0.00 0.00 0.00 0.00 0.00 0.00 0.00 0.00 0.00 0.00 0.00
0.00 0.00 0.00 0.00 0.00 0.00 0.00 0.00 0.00 0.00 0.00 0.00 0.00 0.00 0.00 0.00 0.00 0.00 0.00 0.00 0.00 0.00 0.00 0.00 0.00 0.00 0.00 0.00 0.00 0.00 0.00 0.00 0.00 0.00 0.00 0.00 0.00 0.00 0.00 0.00 0.00 0.00 0.00 0.00 0.00 0.00 0.00 0.00 0.00 0.00 0.00 0.00 0.00 0.00
0.01 0.00 0.00 0.00 0.00 0.00 0.00 0.00 0.00 0.00 0.00 0.00 0.00 0.00 0.00 0.00 0.00 0.00 0.00 0.00 0.00 0.00 0.00 0.00 0.00 0.00 0.00 0.00 0.00 0.00 0.00 0.00 0.00 0.00 0.00 0.00 0.00 0.00 0.00 0.00 0.00 0.00 0.00 0.00 0.00 0.00 0.00 0.00 0.00 0.00 0.00 0.00 0.00 0.00
0.00 0.00 0.00 0.00 0.00 0.00 0.00 0.00 0.00 0.00 0.00 0.00 0.00 0.00 0.00 0.00 0.00 0.00 0.00 0.00 0.00 0.00 0.00 0.00 0.00 0.00 0.00 0.00 0.00 0.00 0.00 0.00 0.00 0.00 0.00 0.00 0.00 0.00 0.00 0.00 0.00 0.00 0.00 0.00 0.00 0.00 0.00 0.00 0.00 0.00 0.00 0.00 0.00 0.00
0.00 0.00 0.00 0.00 0.00 0.00 0.00 0.00 0.00 0.00 0.00 0.00 0.00 0.00 0.00 0.00 0.00 0.00 0.00 0.00 0.00 0.00 0.00 0.00 0.00 0.00 0.00 0.00 0.00 0.00 0.00 0.00 0.00 0.00 0.00 0.00 0.00 0.00 0.00 0.00 0.00 0.00 0.00 0.00 0.00 0.00 0.00 0.00 0.00 0.00 0.00 0.00 0.00 0.00
0.00 0.00 0.00 0.00 0.00 0.00 0.00 0.00 0.00 0.00 0.00 0.00 0.00 0.00 0.00 0.00 0.00 0.00 0.00 0.00 0.00 0.00 0.00 0.00 0.00 0.00 0.00 0.00 0.00 0.00 0.00 0.00 0.00 0.00 0.00 0.00 0.00 0.00 0.00 0.00 0.00 0.00 0.00 0.00 0.00 0.00 0.00 0.00 0.00 0.00 0.00 0.00 0.00 0.00
0.00 0.00 0.00 0.00 0.00 0.00 0.00 0.00 0.00 0.00 0.00 0.00 0.00 0.00 0.00 0.00 0.00 0.00 0.00 0.00 0.00 0.00 0.00 0.00 0.00 0.00 0.00 0.00 0.00 0.00 0.00 0.00 0.00 0.00 0.00 0.00 0.00 0.00 0.00 0.00 0.00 0.00 0.00 0.00 0.00 0.00 0.00 0.00 0.00 0.00 0.00 0.00 0.00 0.00
0.00 0.00 0.00 0.00 0.00 0.00 0.00 0.00 0.00 0.00 0.00 0.00 0.00 0.00 0.00 0.00 0.00 0.00 0.00 0.00 0.00 0.00 0.00 0.00 0.00 0.00 0.00 0.00 0.00 0.00 0.00 0.00 0.00 0.00 0.00 0.00 0.00 0.00 0.00 0.00 0.00 0.00 0.00 0.00 0.00 0.00 0.00 0.00 0.00 0.00 0.00 0.00 0.00 0.00
0.00 0.00 0.00 0.00 0.00 0.00 0.00 0.00 0.00 0.00 0.00 0.00 0.00 0.00 0.00 0.00 0.00 0.00 0.00 0.00 0.00 0.00 0.00 0.00 0.00 0.00 0.00 0.00 0.00 0.00 0.00 0.00 0.00 0.00 0.00 0.00 0.00 0.00 0.00 0.00 0.00 0.00 0.00 0.00 0.00 0.00 0.00 0.00 0.00 0.00 0.00 0.00 0.00 0.00
0.00 0.00 0.00 0.00 0.00 0.00 0.00 0.00 0.00 0.00 0.00 0.00 0.00 0.00 0.00 0.00 0.00 0.00 0.00 0.00 0.00 0.00 0.00 0.00 0.00 0.00 0.00 0.00 0.00 0.00 0.00 0.00 0.00 0.00 0.00 0.00 0.00 0.00 0.00 0.00 0.00 0.00 0.00 0.00 0.00 0.00 0.00 0.00 0.00 0.00 0.00 0.00 0.00 0.00
0.00 0.00 0.00 0.00 0.00 0.00 0.00 0.00 0.00 0.00 0.00 0.00 0.00 0.00 0.00 0.00 0.00 0.00 0.00 0.00 0.00 0.00 0.00 0.00 0.00 0.00 0.00 0.00 0.00 0.00 0.00 0.00 0.00 0.00 0.00 0.00 0.00 0.00 0.00 0.00 0.00 0.00 0.00 0.00 0.00 0.00 0.00 0.00 0.00 0.00 0.00 0.00 0.00 0.00
MSLP
996.42 997.19 997.91 998.61 999.50 1000.43 1001.06 1001.66 1002.49 1003.36 1003.88 1004.23 1004.61 1005.01 1005.25 1005.41 1005.54 1005.67 1007.65 1007.15 1007.18 1009.52 1010.89 1010.66 1010.64 1011.10 1011.92 1012.55 1013.53 1014.63 1015.26 1015.71 1016.60 1017.77 1018.87 1019.10 1018.98 1018.40 1018.23 1017.88 1018.05 1018.77 1019.46 1019.63 1018.96 1018.40 1016.43 1014.08 1013.72 1013.81 1013.06 1012.53 1012.39 1011.91
998.43 998.97 999.52 1000.23 1000.94 1001.69 1002.33 1003.08 1003.76 1004.28 1004.80 1005.24 1005.57 1005.82 1006.01 1006.19 1006.32 1006.42 1007.87 1007.98 1007.98 1009.57 1011.78 1011.71 1011.20 1011.13 1011.38 1012.15 1013.41 1014.76 1015.20 1015.75 1016.55 1017.49 1018.86 1019.61 1019.42 1018.86 1018.28 1018.08 1017.51 1018.00 1017.93 1018.02 1017.53 1015.99 1014.59 1014.03 1013.64 1013.07 1012.87 1012.48 1011.86 1011.54
1000.37 1000.87 1001.44 1002.03 1002.61 1003.19 1003.78 1004.38 1004.88 1005.39 1005.85 1006.14 1006.34 1006.52 1006.75 1006.92 1007.05 1007.02 1008.35 1008.99 1009.33 1011.27 1012.35 1012.14 1012.05 1011.98 1011.67 1012.19 1012.81 1014.40 1015.52 1015.68 1016.36 1016.72 1018.53 1019.40 1019.31 1018.95 1018.62 1017.98 1017.60 1017.23 1016.93 1016.97 1016.43 1014.62 1014.35 1013.66 1013.12 1012.72 1012.30 1011.91 1011.37 1010.86
1001.91 1002.34 1002.86 1003.41 1003.95 1004.41 1004.84 1005.35 1005.85 1006.27 1006.65 1006.99 1007.33 1007.54 1007.67 1007.83 1008.00 1008.01 1009.15 1009.89 1010.51 1012.25 1013.47 1013.48 1012.51 1012.57 1012.57 1012.57 1013.01 1013.66 1014.48 1015.40 1016.35 1017.27 1018.56 1019.28 1019.26 1018.53 1018.46 1017.65 1017.28 1016.64 1016.54 1016.03 1015.39 1014.49 1013.86 1013.31 1012.94 1012.49 1012.05 1011.62 1010.91 1010.28
1003.29 1003.83 1004.39 1004.84 1005.16 1005.48 1005.94 1006.40 1006.86 1007.30 1007.71 1008.06 1008.22 1008.33 1008.59 1008.80 1009.05 1009.46 1010.14 1010.90 1010.98 1012.00 1013.60 1013.94 1013.14 1012.70 1012.60 1012.63 1013.20 1013.92 1014.71 1015.78 1017.03 1018.30 1019.10 1019.22 1018.69 1018.60 1018.06 1017.61 1016.30 1015.78 1015.47 1015.48 1014.52 1014.12 1013.87 1013.18 1012.91 1012.32 1011.74 1011.12 1010.57 1009.94
1004.75 1005.12 1005.45 1005.77 1006.22 1006.68 1007.07 1007.51 1007.95 1008.25 1008.50 1008.80 1009.09 1009.30 1009.56 1009.69 1009.75 1010.37 1011.24 1011.50 1011.37 1011.54 1013.14 1014.59 1014.32 1013.56 1012.98 1012.86 1013.47 1014.25 1014.91 1015.89 1017.26 1017.91 1018.49 1018.28 1017.46 1017.49 1017.75 1016.85 1014.94 1014.47 1014.30 1014.26 1013.80 1013.54 1013.57 1013.10 1012.45 1012.07 1011.68 1011.05 1010.38 1009.66
1006.02 1006.40 1006.68 1007.01 1007.44 1007.81 1008.14 1008.41 1008.70 1009.02 1009.32 1009.54 1009.71 1009.81 1009.98 1009.97 1010.10 1011.23 1012.02 1012.19 1011.80 1012.14 1014.55 1015.59 1015.32 1014.31 1013.79 1013.71 1014.14 1014.78 1015.25 1015.92 1016.63 1017.42 1017.59 1017.42 1017.02 1016.80 1016.71 1015.56 1014.20 1013.97 1013.83 1013.65 1013.67 1013.57 1012.89 1012.58 1012.36 1011.91 1011.48 1010.82 1010.10 1009.26
1006.76 1007.06 1007.40 1007.73 1008.02 1008.38 1008.78 1009.23 1009.55 1009.78 1009.94 1010.12 1010.33 1010.49 1010.69 1010.84 1011.15 1012.01 1012.55 1012.43 1012.81 1013.95 1015.13 1016.36 1016.16 1015.26 1014.08 1014.48 1014.81 1015.04 1015.46 1016.13 1016.43 1016.47 1016.72 1016.60 1016.43 1016.15 1015.22 1013.64 1013.42 1013.43 1013.41 1013.24 1013.18 1013.29 1013.14 1012.66 1012.30 1011.80 1011.22 1010.48 1009.61 1008.68
1007.82 1008.06 1008.37 1008.91 1009.04 1009.19 1009.65 1010.03 1010.24 1010.42 1010.62 1010.78 1011.05 1011.19 1011.49 1012.04 1012.67 1013.12 1012.87 1013.03 1013.50 1014.68 1015.50 1016.19 1016.28 1015.99 1014.78 1014.98 1015.16 1015.34 1015.50 1016.14 1015.88 1015.78 1015.63 1015.69 1015.42 1014.70 1013.01 1012.81 1012.78 1012.82 1012.98 1013.02 1013.04 1013.04 1012.92 1012.73 1012.24 1011.75 1011.06 1010.24 1009.52 1008.44
1008.66 1008.86 1009.22 1009.71 1009.84 1010.00 1010.30 1010.68 1010.91 1010.90 1011.25 1011.36 1011.59 1012.03 1012.98 1013.40 1013.14 1013.27 1013.57 1013.99 1014.38 1015.20 1015.69 1016.14 1016.22 1015.82 1015.20 1015.42 1015.49 1015.69 1015.73 1015.62 1015.52 1014.86 1014.80 1014.72 1013.85 1012.54 1012.04 1011.96 1012.16 1012.31 1012.64 1012.90 1013.10 1012.88 1012.88 1012.79 1012.54 1011.91 1011.24 1010.45 1009.65 1008.63
1009.50 1009.83 1010.12 1010.26 1010.40 1010.70 1011.01 1011.23 1011.38 1011.53 1011.63 1012.17 1012.88 1013.63 1013.92 1013.50 1013.67 1014.49 1015.22 1015.57 1015.85 1015.99 1015.84 1015.69 1015.66 1015.28 1014.83 1015.12 1015.34 1015.35 1015.27 1015.02 1014.47 1014.17 1014.16 1013.60 1012.70 1011.73 1011.42 1011.67 1011.85 1012.20 1012.51 1012.84 1013.08 1013.19 1013.13 1012.99 1012.63 1012.06 1011.26 1010.50 1009.56 1008.65
1010.14 1010.38 1010.58 1010.82 1011.12 1011.40 1011.59 1011.74 1011.79 1011.98 1012.43 1012.50 1012.74 1013.42 1013.83 1014.22 1014.98 1015.76 1016.33 1016.09 1015.89 1015.53 1015.31 1015.16 1014.99 1014.87 1014.62 1014.56 1014.82 1014.83 1014.60 1014.61 1013.90 1013.59 1013.52 1012.70 1011.63 1011.29 1011.39 1011.58 1011.76 1012.08 1012.45 1012.65 1012.77 1012.94 1012.92 1012.75 1012.42 1012.07 1011.42 1010.50 1009.59 1008.79
1010.67 1010.90 1011.15 1011.37 1011.56 1011.72 1011.87 1012.01 1012.05 1012.17 1012.27 1012.66 1013.17 1014.16 1014.86 1015.91 1016.27 1016.43 1016.34 1015.90 1015.49 1014.83 1014.59 1014.69 1014.80 1014.64 1014.48 1014.41 1014.39 1014.33 1014.22 1013.79 1013.32 1013.09 1012.48 1011.76 1011.41 1011.25 1011.23 1011.39 1011.71 1011.93 1012.09 1012.41 1012.65 1012.65 1012.58 1012.39 1012.02 1011.70 1011.17 1010.38 1009.54 1008.84
1011.09 1011.34 1011.53 1011.69 1011.85 1012.01 1012.17 1012.30 1012.34 1012.47 1012.68 1013.54 1014.44 1015.29 1015.99 1016.35 1016.08 1015.71 1015.45 1015.07 1014.69 1014.45 1014.28 1014.37 1014.52 1014.53 1014.11 1014.23 1014.09 1014.16 1013.79 1013.54 1013.29 1012.94 1012.16 1011.73 1011.43 1011.27 1011.21 1011.39 1011.55 1011.74 1012.13 1012.43 1012.49 1012.41 1012.40 1012.24 1011.92 1011.48 1010.94 1010.27 1009.56 1008.83
1011.29 1011.54 1011.78 1011.99 1012.07 1012.25 1012.42 1012.54 1012.63 1012.91 1013.48 1014.20 1014.66 1015.56 1015.94 1015.40 1015.26 1015.02 1014.83 1014.53 1013.87 1013.62 1013.74 1014.04 1014.37 1014.39 1014.06 1013.93 1013.69 1013.76 1013.86 1013.42 1013.17 1012.66 1012.06 1011.56 1011.18 1011.06 1010.96 1010.98 1011.26 1011.66 1011.90 1012.10 1012.16 1012.43 1012.26 1012.05 1011.88 1011.39 1010.72 1010.17 1009.50 1008.78
1011.46 1011.71 1011.97 1012.03 1012.20 1012.37 1012.58 1012.82 1013.09 1013.38 1013.80 1014.25 1014.63 1015.06 1015.30 1015.60 1015.49 1015.14 1014.74 1014.41 1013.52 1013.41 1013.51 1013.85 1014.15 1014.34 1013.79 1013.49 1013.13 1013.10 1013.19 1012.84 1012.33 1012.03 1011.39 1011.05 1010.89 1010.60 1010.61 1010.82 1011.07 1011.20 1011.48 1011.78 1011.83 1011.84 1011.82 1011.79 1011.61 1011.08 1010.52 1010.06 1009.54 1008.82
1011.69 1011.95 1011.83 1012.05 1012.29 1012.60 1012.88 1013.30 1013.69 1013.98 1014.22 1014.42 1014.37 1014.31 1014.73 1015.05 1015.03 1014.74 1014.19 1013.75 1013.21 1013.48 1013.74 1013.81 1014.07 1013.73 1013.32 1013.21 1012.79 1012.19 1012.18 1011.64 1011.22 1011.20 1010.85 1010.76 1010.58 1010.28 1010.23 1010.38 1010.66 1010.86 1011.06 1011.22 1011.32 1011.33 1011.34 1011.05 1010.95 1010.75 1010.62 1009.73 1009.53 1008.94
1012.00 1011.75 1011.70 1012.11 1012.57 1012.94 1013.19 1013.46 1013.91 1014.06 1014.09 1013.91 1014.26 1013.93 1014.02 1013.95 1013.89 1013.83 1013.56 1013.12 1013.17 1013.18 1013.32 1013.19 1013.02 1013.06 1012.59 1012.03 1011.46 1011.06 1010.93 1010.69 1010.65 1010.41 1010.38 1010.25 1010.02 1009.71 1009.69 1009.90 1010.04 1010.28 1010.44 1010.52 1010.68 1010.73 1010.76 1010.70 1010.67 1010.35 1009.82 1009.61 1009.36 1008.87
1011.71 1011.54 1011.77 1012.12 1012.54 1013.23 1013.54 1013.75 1013.97 1013.76 1013.36 1013.44 1013.23 1013.20 1013.26 1013.06 1012.66 1012.50 1012.46 1012.35 1012.33 1012.25 1012.45 1012.70 1012.62 1012.14 1011.34 1010.61 1010.61 1010.56 1010.60 1010.42 1010.45 1009.89 1009.58 1009.32 1009.35 1009.24 1009.19 1009.32 1009.53 1009.81 1009.98 1010.09 1010.05 1010.14 1010.12 1010.03 1009.95 1009.77 1009.58 1009.54 1009.40 1008.92
1011.42 1011.62 1011.86 1012.28 1012.54 1013.25 1013.51 1013.56 1013.62 1013.42 1013.03 1012.62 1012.65 1012.73 1012.71 1012.29 1011.79 1011.74 1011.70 1011.83 1012.03 1012.05 1012.06 1011.73 1011.13 1010.39 1010.27 1010.09 1010.07 1010.08 1010.00 1009.87 1009.84 1009.65 1009.30 1009.10 1009.22 1009.20 1009.30 1009.57 1009.65 1009.57 1009.64 1009.68 1009.74 1009.76 1009.65 1009.59 1009.51 1009.52 1009.45 1009.62 1009.59 1009.23
1011.60 1011.67 1011.99 1012.34 1012.84 1013.26 1013.43 1013.12 1012.98 1012.70 1012.29 1012.34 1011.97 1012.11 1012.05 1011.74 1011.51 1011.40 1011.21 1011.15 1011.68 1011.18 1010.79 1010.08 1009.78 1009.61 1009.68 1009.93 1009.89 1010.12 1010.38 1010.26 1010.45 1010.24 1010.27 1010.02 1010.02 1009.97 1009.89 1009.93 1009.88 1009.88 1009.86 1009.76 1009.90 1009.76 1009.65 1009.70 1009.61 1009.43 1009.69 1009.93 1009.59 1009.18
1011.56 1011.83 1012.20 1012.57 1012.86 1013.18 1013.07 1012.52 1012.46 1012.16 1012.27 1011.89 1011.89 1011.65 1011.75 1011.62 1011.15 1010.78 1010.40 1010.65 1010.44 1009.73 1009.54 1009.40 1009.35 1009.48 1009.77 1010.16 1010.73 1010.67 1010.62 1010.49 1010.38 1010.29 1010.18 1010.10 1009.99 1009.83 1009.61 1009.46 1009.43 1009.46 1009.73 1009.87 1009.78 1009.77 1009.83 1009.97 1009.97 1009.92 1010.04 1009.82 1009.43 1008.99
1011.53 1011.95 1012.35 1012.52 1012.96 1013.14 1012.65 1012.23 1012.41 1012.03 1012.13 1011.87 1011.68 1011.71 1011.55 1011.13 1010.30 1010.00 1010.12 1009.78 1009.49 1009.47 1009.45 1009.56 1009.85 1010.07 1010.27 1010.54 1010.58 1010.43 1010.42 1010.37 1010.38 1010.31 1010.21 1010.23 1010.14 1010.20 1010.15 1010.04 1009.98 1009.98 1010.02 1010.15 1010.34 1010.43 1010.42 1010.47 1010.42 1010.39 1010.10 1009.80 1009.59 1009.10
1011.59 1011.81 1011.80 1012.04 1012.28 1012.38 1012.24 1012.21 1012.00 1011.94 1011.82 1011.90 1011.80 1011.56 1011.03 1010.47 1009.87 1009.93 1009.72 1009.24 1009.13 1009.48 1009.72 1009.94 1010.12 1010.41 1010.49 1010.38 1010.44 1010.51 1010.59 1010.55 1010.57 1010.64 1010.69 1010.64 1010.63 1010.59 1010.55 1010.46 1010.35 1010.42 1010.78 1010.84 1010.83 1010.94 1010.84 1010.87 1010.62 1010.52 1010.30 1009.94 1009.41 1008.91
1011.48 1011.24 1011.37 1011.22 1011.42 1011.93 1012.00 1012.10 1011.98 1011.99 1012.29 1011.75 1011.73 1011.31 1010.50 1009.88 1010.02 1009.94 1009.29 1008.80 1009.07 1009.53 1009.97 1010.25 1010.32 1010.32 1010.43 1010.27 1010.46 1010.75 1010.84 1010.82 1010.93 1011.02 1010.99 1010.97 1010.92 1010.94 1010.95 1010.93 1010.88 1010.83 1010.85 1011.03 1011.02 1011.00 1010.97 1010.74 1010.54 1010.34 1009.96 1009.57 1009.06 1008.43
1009.89 1009.50 1009.61 1009.82 1010.48 1010.96 1011.11 1011.66 1011.85 1011.69 1011.45 1011.56 1011.08 1010.27 1009.97 1010.07 1010.22 1009.51 1008.54 1008.56 1008.89 1009.30 1009.64 1009.94 1010.03 1010.15 1010.32 1010.48 1010.84 1011.18 1011.18 1011.09 1011.20 1011.32 1011.21 1011.10 1011.16 1011.17 1011.39 1011.50 1011.35 1011.07 1010.83 1010.83 1010.86 1010.62 1010.30 1010.06 1009.85 1009.55 1009.13 1008.76 1008.40 1007.92
1008.04 1008.05 1008.26 1008.60 1009.01 1009.47 1010.11 1010.29 1010.37 1010.67 1010.93 1010.70 1010.26 1010.18 1010.23 1010.28 1009.76 1008.54 1008.35 1008.38 1008.57 1008.68 1008.92 1009.15 1009.52 1009.83 1010.18 1010.71 1011.11 1011.24 1011.36 1011.43 1011.55 1011.52 1011.28 1011.16 1011.06 1011.02 1011.21 1011.43 1011.60 1011.04 1010.64 1010.56 1010.35 1010.11 1009.63 1009.24 1009.00 1008.78 1008.30 1007.79 1007.54 1007.10
1006.29 1006.56 1007.22 1008.00 1008.46 1008.58 1009.26 1009.52 1009.64 1009.83 1009.45 1009.18 1009.47 1009.97 1009.55 1009.03 1008.32 1007.80 1007.80 1007.66 1007.88 1008.24 1008.75 1009.27 1009.52 1009.86 1010.43 1010.90 1011.07 1011.45 1011.74 1011.84 1011.82 1011.71 1011.39 1011.30 1011.17 1011.09 1011.02 1010.91 1010.79 1010.65 1010.41 1010.11 1009.85 1009.54 1009.14 1008.63 1008.18 1007.79 1007.46 1006.92 1006.37 1006.01
1005.45 1005.63 1006.51 1007.45 1007.93 1008.29 1008.42 1008.45 1008.42 1008.04 1007.61 1008.12 1008.55 1008.21 1007.85 1007.55 1007.31 1007.38 1007.47 1007.61 1007.96 1008.62 1009.46 1010.05 1010.51 1010.49 1010.90 1011.21 1011.50 1011.75 1011.96 1012.15 1012.53 1012.35 1012.40 1011.92 1011.59 1011.74 1011.15 1010.99 1010.79 1010.40 1010.02 1009.61 1009.16 1008.70 1008.21 1007.66 1007.06 1006.61 1006.23 1005.84 1005.38 1004.99
1004.83 1005.10 1005.98 1006.71 1007.26 1007.06 1006.64 1006.75 1007.10 1006.77 1006.72 1006.83 1006.93 1007.24 1007.38 1007.36 1007.12 1007.10 1007.39 1007.94 1008.62 1009.22 1009.60 1010.23 1010.74 1011.29 1011.58 1011.83 1012.20 1012.31 1012.09 1012.15 1012.13 1012.37 1012.18 1011.75 1011.61 1011.25 1011.18 1010.92 1010.49 1009.90 1009.46 1009.05 1008.42 1007.83 1007.31 1006.74 1006.19 1005.75 1005.56 1005.12 1004.67 1004.20
1003.85 1004.73 1005.44 1006.00 1006.53 1006.25 1006.18 1006.31 1006.85 1007.13 1007.13 1007.42 1007.49 1007.91 1008.07 1008.10 1007.73 1007.52 1007.85 1008.07 1008.75 1009.56 1010.17 1010.82 1011.20 1011.46 1011.67 1011.82 1012.25 1012.87 1012.58 1011.98 1011.89 1011.85 1011.79 1011.81 1011.54 1011.21 1010.76 1010.23 1009.74 1009.24 1008.70 1008.16 1007.62 1007.07 1006.47 1005.93 1005.45 1004.97 1004.56 1004.09 1003.61 1003.27
1003.90 1004.34 1005.21 1005.91 1006.38 1006.51 1006.47 1007.01 1007.48 1008.05 1008.50 1008.73 1008.73 1008.90 1009.10 1009.29 1009.47 1008.71 1008.59 1008.75 1009.49 1009.98 1010.05 1010.42 1010.81 1011.01 1010.92 1010.92 1011.15 1011.41 1011.62 1011.94 1012.18 1011.73 1011.58 1011.50 1011.10 1010.50 1010.01 1009.57 1009.03 1008.42 1007.93 1007.46 1006.94 1006.40 1005.80 1005.21 1004.63 1004.13 1003.64 1003.13 1002.69 1002.29
1004.24 1004.66 1004.92 1005.51 1006.32 1006.74 1007.15 1007.42 1008.31 1009.20 1009.62 1009.80 1009.94 1010.04 1010.05 1010.24 1010.19 1009.38 1008.69 1008.71 1009.29 1009.30 1009.71 1010.00 1010.02 1010.34 1010.47 1010.46 1010.74 1011.03 1011.13 1011.25 1011.23 1011.10 1010.82 1010.49 1010.11 1009.73 1009.36 1008.85 1008.39 1007.90 1007.35 1006.76 1006.24 1005.70 1005.05 1004.54 1004.03 1003.58 1003.14 1002.65 1002.11 1001.62
Thickness
5405 5405 5404 5403 5403 5403 5405 5408 5409 5408 5411 5414 5417 5419 5423 5427 5432 5435 5423 5432 5436 5415 5412 5419 5423 5416 5408 5404 5398 5395 5389 5382 5371 5357 5342 5348 5352 5361 5360 5369 5361 5333 5317 5308 5308 5258 5307 5365 5365 5354 5355 5357 5355 5355
5403 5402 5403 5402 5401 5400 5401 5400 5400 5402 5403 5404 5406 5408 5411 5414 5419 5423 5415 5419 5423 5411 5402 5401 5407 5410 5408 5399 5383 5373 5376 5371 5362 5344 5332 5328 5342 5332 5348 5335 5358 5322 5334 5331 5330 5337 5357 5354 5348 5350 5343 5341 5345 5344
5395 5395 5393 5392 5391 5391 5390 5390 5390 5391 5393 5395 5398 5401 5403 5406 5410 5414 5405 5404 5403 5387 5384 5388 5389 5390 5392 5387 5382 5357 5351 5358 5354 5348 5328 5322 5331 5330 5316 5327 5342 5344 5343 5323 5332 5355 5347 5346 5350 5348 5347 5344 5344 5346
5390 5390 5389 5387 5386 5386 5386 5386 5386 5386 5387 5388 5389 5390 5392 5394 5395 5399 5392 5388 5384 5364 5354 5365 5374 5375 5375 5375 5372 5364 5356 5347 5339 5330 5306 5308 5320 5324 5321 5331 5328 5331 5335 5334 5337 5344 5344 5349 5345 5341 5341 5342 5343 5344
5380 5378 5376 5375 5377 5378 5377 5376 5375 5374 5374 5374 5376 5378 5379 5379 5379 5378 5374 5370 5372 5366 5349 5353 5361 5367 5366 5365 5360 5352 5343 5330 5310 5301 5287 5296 5304 5306 5310 5315 5324 5327 5333 5319 5330 5339 5335 5341 5338 5337 5334 5336 5336 5337
5366 5367 5367 5367 5366 5366 5365 5364 5363 5363 5364 5364 5363 5364 5364 5365 5367 5364 5354 5359 5362 5363 5344 5331 5342 5350 5356 5354 5345 5336 5328 5320 5307 5294 5286 5290 5312 5298 5281 5311 5335 5334 5337 5336 5341 5342 5336 5332 5334 5332 5327 5328 5329 5330
5355 5353 5353 5352 5352 5351 5351 5351 5351 5350 5350 5351 5352 5353 5354 5357 5359 5349 5343 5345 5351 5351 5323 5311 5321 5336 5339 5336 5326 5318 5311 5304 5299 5289 5291 5302 5305 5305 5299 5322 5335 5339 5339 5340 5338 5332 5336 5333 5326 5324 5321 5323 5326 5328
5350 5349 5347 5347 5346 5344 5342 5340 5340 5340 5341 5341 5342 5343 5344 5345 5344 5337 5337 5339 5338 5329 5321 5285 5310 5320 5334 5320 5314 5314 5300 5294 5292 5295 5288 5296 5299 5308 5319 5332 5337 5339 5339 5340 5339 5333 5326 5325 5321 5318 5320 5323 5325 5330
5339 5339 5338 5333 5335 5336 5333 5332 5332 5332 5332 5332 5331 5332 5332 5328 5326 5325 5328 5329 5327 5318 5299 5296 5303 5294 5321 5315 5310 5305 5307 5299 5304 5297 5304 5304 5308 5314 5335 5337 5343 5341 5336 5336 5334 5328 5323 5317 5316 5315 5317 5320 5322 5327
5332 5332 5330 5326 5328 5328 5327 5324 5323 5325 5323 5323 5324 5316 5304 5314 5318 5320 5315 5309 5305 5304 5304 5302 5303 5304 5311 5301 5298 5299 5298 5303 5300 5315 5310 5309 5317 5335 5341 5345 5342 5340 5335 5331 5318 5322 5319 5314 5312 5310 5311 5315 5317 5320
5323 5322 5320 5321 5322 5320 5317 5316 5316 5316 5317 5313 5303 5300 5306 5310 5309 5298 5283 5284 5289 5299 5302 5309 5308 5305 5315 5309 5309 5308 5302 5314 5320 5322 5319 5327 5331 5336 5343 5340 5338 5334 5330 5326 5320 5314 5309 5306 5304 5305 5307 5310 5313 5316
5316 5316 5316 5315 5313 5312 5311 5312 5313 5313 5310 5311 5311 5307 5305 5301 5296 5281 5261 5290 5298 5312 5306 5306 5307 5309 5311 5317 5317 5314 5319 5308 5322 5322 5326 5328 5333 5342 5338 5338 5335 5330 5325 5320 5316 5311 5307 5305 5302 5300 5301 5305 5310 5311
5313 5312 5311 5311 5311 5311 5312 5312 5312 5312 5312 5310 5305 5295 5292 5278 5263 5260 5259 5286 5281 5299 5311 5307 5313 5307 5316 5316 5315 5314 5312 5314 5330 5332 5339 5338 5335 5338 5337 5334 5331 5326 5322 5316 5311 5308 5306 5304 5304 5302 5302 5304 5307 5307
5311 5310 5310 5310 5310 5310 5309 5309 5309 5308 5306 5296 5280 5275 5269 5259 5284 5294 5297 5302 5304 5306 5307 5303 5300 5316 5317 5313 5313 5310 5320 5324 5319 5314 5320 5333 5335 5333 5330 5327 5324 5322 5315 5307 5305 5304 5301 5300 5299 5298 5296 5299 5303 5304
5312 5311 5309 5308 5308 5306 5305 5304 5303 5301 5295 5292 5288 5271 5267 5289 5286 5287 5290 5298 5308 5312 5313 5302 5300 5302 5312 5313 5319 5317 5312 5315 5316 5312 5318 5326 5329 5328 5326 5323 5318 5312 5304 5301 5299 5292 5289 5288 5287 5290 5292 5293 5296 5298
5311 5310 5308 5307 5305 5303 5301 5298 5296 5293 5290 5287 5289 5283 5279 5275 5267 5270 5284 5293 5307 5310 5309 5305 5299 5297 5300 5310 5328 5312 5306 5293 5301 5303 5318 5319 5323 5322 5319 5316 5311 5306 5299 5291 5285 5283 5283 5277 5277 5283 5282 5284 5285 5289
5309 5307 5307 5305 5302 5299 5295 5291 5286 5282 5281 5282 5277 5281 5281 5275 5276 5281 5288 5298 5305 5302 5288 5303 5290 5310 5307 5306 5325 5319 5303 5306 5313 5315 5315 5315 5313 5314 5310 5306 5298 5293 5290 5284 5279 5276 5270 5273 5266 5267 5270 5275 5278 5279
5305 5308 5308 5303 5299 5294 5291 5288 5282 5285 5286 5287 5276 5279 5282 5285 5284 5284 5292 5300 5301 5300 5304 5308 5303 5310 5297 5325 5314 5310 5308 5307 5308 5312 5312 5310 5308 5304 5301 5297 5292 5286 5283 5276 5271 5268 5264 5261 5265 5265 5264 5266 5269 5266
5307 5308 5305 5302 5298 5291 5288 5286 5284 5287 5290 5283 5283 5282 5285 5287 5291 5295 5298 5300 5302 5304 5306 5300 5303 5306 5313 5310 5303 5300 5298 5301 5300 5301 5302 5300 5295 5293 5291 5287 5283 5275 5268 5264 5263 5260 5257 5257 5253 5251 5250 5250 5249 5250
5308 5305 5303 5299 5296 5291 5290 5289 5286 5288 5290 5289 5287 5286 5290 5292 5296 5292 5300 5299 5300 5301 5302 5309 5307 5305 5301 5302 5299 5299 5297 5297 5292 5290 5284 5282 5280 5277 5274 5269 5263 5260 5256 5254 5248 5242 5238 5236 5233 5230 5234 5225 5222 5225
5303 5302 5299 5296 5291 5289 5285 5288 5291 5291 5295 5292 5294 5296 5294 5295 5296 5294 5300 5300 5298 5294 5304 5309 5305 5306 5297 5295 5294 5289 5284 5281 5273 5271 5267 5264 5258 5257 5254 5249 5244 5240 5233 5229 5225 5221 5216 5211 5209 5213 5207 5200 5198 5200
5297 5295 5292 5289 5289 5286 5287 5289 5292 5293 5292 5295 5294 5301 5291 5280 5284 5294 5305 5295 5297 5304 5301 5297 5297 5293 5290 5282 5269 5268 5266 5264 5260 5256 5252 5248 5242 5242 5240 5236 5231 5225 5215 5207 5206 5202 5195 5192 5188 5184 5178 5177 5178 5182
5290 5287 5284 5285 5283 5278 5286 5284 5290 5293 5288 5289 5294 5296 5287 5290 5302 5303 5289 5302 5300 5298 5295 5292 5284 5278 5273 5266 5262 5259 5252 5251 5245 5241 5238 5233 5228 5221 5215 5211 5207 5201 5196 5189 5180 5173 5168 5161 5158 5155 5154 5154 5151 5156
5282 5281 5284 5281 5281 5270 5284 5281 5290 5292 5285 5282 5280 5281 5291 5288 5298 5290 5296 5298 5296 5284 5280 5274 5270 5263 5259 5257 5248 5242 5238 5235 5229 5223 5217 5211 5205 5198 5193 5187 5181 5174 5163 5157 5152 5144 5139 5132 5129 5126 5124 5125 5130 5133
5279 5282 5282 5279 5279 5276 5272 5262 5267 5282 5262 5270 5277 5264 5284 5290 5277 5276 5294 5292 5287 5278 5263 5259 5255 5253 5247 5241 5235 5227 5221 5216 5208 5201 5194 5188 5182 5173 5166 5161 5156 5151 5143 5130 5120 5114 5111 5107 5104 5104 5105 5105 5109 5114
5282 5285 5286 5284 5271 5280 5277 5257 5254 5259 5260 5259 5271 5284 5278 5270 5274 5284 5292 5275 5266 5263 5254 5252 5248 5240 5237 5232 5221 5211 5202 5198 5191 5180 5174 5170 5162 5153 5140 5133 5127 5122 5119 5111 5101 5099 5099 5092 5086 5087 5090 5090 5090 5094
5290 5287 5294 5291 5294 5294 5272 5274 5287 5271 5263 5265 5273 5269 5272 5264 5252 5278 5273 5263 5263 5257 5254 5248 5243 5237 5227 5215 5204 5196 5188 5182 5175 5166 5161 5153 5147 5140 5129 5113 5107 5108 5104 5097 5090 5086 5087 5084 5076 5077 5078 5080 5079 5081
5298 5299 5295 5288 5283 5290 5274 5272 5276 5274 5280 5289 5277 5264 5259 5259 5271 5272 5267 5264 5259 5254 5247 5237 5230 5221 5210 5199 5189 5177 5168 5158 5153 5147 5141 5133 5126 5119 5112 5104 5096 5090 5084 5079 5075 5073 5070 5070 5069 5069 5068 5071 5075 5075
5299 5299 5289 5277 5267 5276 5283 5287 5290 5293 5292 5285 5268 5260 5268 5278 5269 5265 5260 5257 5251 5242 5230 5218 5203 5193 5187 5177 5167 5158 5148 5140 5130 5117 5107 5108 5104 5094 5092 5086 5080 5076 5072 5070 5066 5064 5064 5064 5065 5066 5067 5068 5070 5071
5293 5295 5283 5273 5278 5290 5294 5290 5284 5284 5285 5287 5282 5277 5273 5267 5261 5256 5253 5246 5237 5227 5219 5205 5191 5184 5171 5158 5146 5138 5131 5123 5116 5106 5095 5097 5092 5089 5081 5075 5070 5067 5063 5061 5061 5062 5061 5062 5062 5061 5060 5062 5064 5068
5295 5288 5272 5276 5275 5280 5279 5266 5266 5266 5263 5269 5258 5260 5261 5248 5244 5240 5234 5226 5217 5205 5197 5184 5173 5160 5153 5132 5126 5116 5112 5110 5098 5094 5090 5084 5077 5071 5068 5064 5060 5058 5057 5056 5058 5059 5060 5061 5061 5062 5063 5065 5067 5069
5281 5284 5276 5266 5266 5262 5261 5256 5247 5247 5238 5257 5252 5237 5234 5222 5218 5216 5214 5210 5199 5187 5185 5175 5162 5153 5145 5136 5127 5119 5112 5100 5089 5082 5077 5069 5065 5061 5057 5054 5053 5054 5052 5052 5054 5056 5058 5060 5063 5065 5067 5070 5072 5074
5266 5255 5252 5257 5259 5263 5254 5258 5248 5238 5232 5230 5229 5213 5211 5212 5211 5206 5205 5199 5194 5188 5175 5164 5155 5142 5136 5129 5120 5109 5097 5087 5080 5074 5070 5064 5058 5054 5051 5050 5049 5048 5049 5052 5053 5056 5059 5060 5063 5064 5066 5069 5071 5074